Flag for Brazil Weather past 2 weeks in Rio de Janeiro, Rio de Janeiro, Brazil

Now
75 °F

Passing clouds.


Feels Like: 76 °F
Forecast: 73 / 80 °F
Wind: 5 mph from West

Location: Galeao


UV Index: 5 (Moderate)

Visibility: 5 mi


Pressure: 29.98 "Hg

Humidity: 78%

Dew point: 68 °F

Location of Rio de JaneiroLocation

Historic Weather in Rio de Janeiro

°F

Rio de Janeiro temperature yesterday

Maximum temperature yesterday: 84 °F (at 11:00 AM)
Minimum temperature yesterday: 73 °F (at 4:00 AM)
Average temperature yesterday: 78 °F

Past Weeks' High & Low Weather Summary

 TemperatureHumidityPressure
High93 °F (Apr 12, 1:00 PM)94% (Apr 6, 5:00 AM)30.09 "Hg (Apr 6, 5:00 AM)
Low66 °F (Apr 6, 5:00 AM)32% (Apr 12, 4:00 PM)29.74 "Hg (Apr 9, 3:00 PM)
Average77 °F74%29.95 "Hg
* Reported Apr 6 5:00 AM — Apr 21 5:00 AM, Rio de Janeiro, Weather by CustomWeather, © 2014

Note: Actual official high and low records may vary slightly from our data, if they occured in-between our weather recording intervals... More about our weather records

Advertising

Historic Weather Conditions — Data for Previous 24 hours

 ConditionsComfort  
Time TempWeatherWind HumidityBarometerVisibility
5:00 AM
Apr 21
75 °FPassing clouds.5 mph78%29.98 "Hg5 mi
4:00 AM75 °FPassing clouds.7 mph78%29.98 "Hg5 mi
3:00 AM75 °FPassing clouds.5 mph78%29.98 "Hg5 mi
2:00 AM75 °FClear.5 mph78%29.98 "Hg5 mi
1:00 AM77 °FPassing clouds.6 mph74%29.98 "Hg5 mi
12:00 AM77 °FClear.7 mph74%29.98 "Hg5 mi
11:00 PM
Apr 20
75 °FPassing clouds.5 mph83%29.98 "Hg4 mi
10:00 PM77 °FPassing clouds.7 mph74%29.98 "Hg5 mi
9:00 PM77 °FPassing clouds.7 mph74%29.98 "HgN/A
8:00 PM79 °FPassing clouds.8 mph65%29.98 "HgN/A
7:00 PM79 °FPassing clouds.12 mph65%29.98 "Hg6 mi
6:00 PM79 °FPartly cloudy.12 mph61%29.95 "Hg5 mi
5:00 PM79 °FPassing clouds.10 mph65%29.95 "Hg5 mi
4:00 PM81 °FScattered clouds.14 mph66%29.92 "Hg5 mi
3:00 PM81 °FScattered clouds.14 mph66%29.92 "Hg5 mi
2:00 PM82 °FPartly sunny.13 mph66%29.92 "Hg5 mi
1:00 PM84 °FPartly sunny.5 mph66%29.92 "Hg2 mi
12:00 PM82 °FPartly sunny.12 mph70%29.95 "Hg2 mi
11:00 AM84 °FPartly sunny.8 mph62%29.95 "Hg4 mi
10:00 AM82 °FPartly sunny.7 mph66%29.98 "Hg4 mi
9:00 AM81 °FBroken clouds.2 mph74%29.95 "Hg2 mi
8:00 AM77 °FFog.6 mph83%29.95 "Hg2 mi
7:00 AM75 °FFog.6 mph89%29.95 "Hg2 mi
6:00 AM73 °FFog.2 mph89%29.95 "Hg2 mi
5:00 AM73 °FPassing clouds.2 mph89%29.92 "Hg4 mi
Weather by CustomWeather, © 2014

See weather overview